Location: ??
(35.4032°N, 139.3073°E)
Time: 11:47:18
(UTC+00:00)

Cosmos 1933 Rocket - Visible Passes

Search period start: 15 July 2024 00:00
Search period end: 25 July 2024 00:00
Orbit: 604 x 625 km, 82.5° (Epoch: 14 July)

Date Brightness Start Highest point End Pass type
(mag) Time Alt. Az. Time Alt. Az. Time Alt. Az.
19 Jul 6.4 18:45:28 10° SE 18:48:08 16° E 18:50:49 10° NE visible
20 Jul 5.7 19:00:08 10° SSE 19:03:56 29° E 19:07:48 10° NNE visible
21 Jul 4.4 19:15:30 10° S 19:19:50 56° E 19:24:11 10° NNE visible
23 Jul 6.4 18:12:02 10° ESE 18:14:29 15° E 18:16:55 10° NE visible
24 Jul 5.7 18:26:33 10° SSE 18:30:16 27° E 18:34:00 10° NNE visible
